Location: Appleton
(44.2618°N, 88.4157°W)
Time: 19:42:18
(UTC+00:00)

Vanguard 2 Rocket - Visible Passes

Search period start: 28 February 2021 00:00
Search period end: 10 March 2021 00:00
Orbit: 554 x 3325 km, 32.9° (Epoch: 28 February)

Date Brightness Start Highest point End Pass type
(mag) Time Alt. Az. Time Alt. Az. Time Alt. Az.
28 Feb 9.5 09:09:00 13° SSE 09:10:54 14° SE 09:15:15 10° ESE visible
28 Feb 9.2 11:15:13 10° SW 11:22:49 39° SSE 11:35:27 10° E visible
01 Mar 8.9 10:18:38 18° SSW 10:23:08 30° SSE 10:32:53 10° E visible
02 Mar 9.0 09:22:26 19° SSE 09:23:50 20° SE 09:30:15 10° ESE visible
02 Mar 9.0 11:28:41 10° SW 11:36:13 43° SSE 11:48:59 10° ESE visible
03 Mar 8.7 10:32:01 20° SSW 10:36:24 35° SSE 10:46:38 10° E visible
04 Mar 8.6 09:35:47 24° SSE 09:36:59 25° SSE 09:44:26 10° E visible
04 Mar 8.9 11:42:21 10° WSW 11:49:45 44° S 12:02:22 10° ESE visible
05 Mar 9.3 08:39:32 14° SE 08:39:32 14° SE 08:42:06 10° ESE visible
05 Mar 8.5 10:45:19 19° SW 10:49:52 38° SSE 11:00:13 10° ESE visible
06 Mar 8.3 09:49:04 28° S 09:50:21 30° SSE 09:58:17 10° ESE visible
07 Mar 9.0 08:52:48 19° SE 08:52:48 19° SE 08:56:31 10° ESE visible
07 Mar 8.5 10:58:35 17° SW 11:03:27 39° S 11:13:37 10° ESE visible
08 Mar 8.1 10:02:19 29° SSW 10:03:51 33° SSE 10:11:54 10° ESE visible
09 Mar 8.6 09:06:03 23° SE 09:06:03 23° SE 09:10:27 10° ESE visible
09 Mar 8.6 11:11:50 13° WSW 11:17:08 36° S 11:26:50 10° ESE visible
